TimePDT,TemperatureF,Dew PointF,Humidity,Sea Level PressureIn,VisibilityMPH,Wind Direction,Wind SpeedMPH,Gust SpeedMPH,PrecipitationIn,Events,Conditions,WindDirDegrees,DateUTC
12:56 AM,55.0,37.0,51,30.10,10.0,Calm,Calm,-,N/A,,Clear,0,2013-05-03 07:56:00
1:56 AM,51.1,39.9,66,30.09,10.0,Calm,Calm,-,N/A,,Clear,0,2013-05-03 08:56:00
2:56 AM,52.0,37.0,57,30.07,10.0,NNW,4.6,-,N/A,,Clear,340,2013-05-03 09:56:00
3:56 AM,48.0,39.0,71,30.06,10.0,Calm,Calm,-,N/A,,Clear,0,2013-05-03 10:56:00
4:56 AM,48.0,37.9,68,30.05,10.0,Calm,Calm,-,N/A,,Clear,0,2013-05-03 11:56:00
5:56 AM,46.9,37.9,71,30.05,10.0,Calm,Calm,-,N/A,,Clear,0,2013-05-03 12:56:00
6:56 AM,46.0,39.0,76,30.06,10.0,Calm,Calm,-,N/A,,Clear,0,2013-05-03 13:56:00
7:56 AM,54.0,36.0,51,30.05,10.0,Calm,Calm,-,N/A,,Clear,0,2013-05-03 14:56:00
8:56 AM,61.0,36.0,39,30.04,10.0,Calm,Calm,-,N/A,,Clear,0,2013-05-03 15:56:00
9:56 AM,66.9,39.0,36,30.01,10.0,Calm,Calm,-,N/A,,Clear,0,2013-05-03 16:56:00
11:56 AM,80.1,37.9,22,29.96,10.0,Variable,3.5,-,N/A,,Clear,0,2013-05-03 18:56:00
12:56 PM,84.0,37.0,19,29.92,10.0,Calm,Calm,-,N/A,,Clear,0,2013-05-03 19:56:00
1:56 PM,89.1,39.0,17,29.89,10.0,Calm,Calm,-,N/A,,Clear,0,2013-05-03 20:56:00
2:56 PM,93.0,36.0,13,29.86,10.0,ESE,4.6,-,N/A,,Clear,110,2013-05-03 21:56:00
3:56 PM,93.9,33.1,12,29.83,10.0,SSE,3.5,-,N/A,,Clear,160,2013-05-03 22:56:00
4:56 PM,93.0,35.1,13,29.82,10.0,West,10.4,-,N/A,,Clear,280,2013-05-03 23:56:00
5:56 PM,90.0,32.0,13,29.82,10.0,Variable,4.6,-,N/A,,Clear,0,2013-05-04 00:56:00
6:56 PM,87.1,33.1,15,29.81,10.0,East,5.8,-,N/A,,Clear,80,2013-05-04 01:56:00
7:56 PM,77.0,41.0,28,29.81,10.0,Calm,Calm,-,N/A,,Clear,0,2013-05-04 02:56:00
8:56 PM,73.9,39.0,28,29.81,10.0,Calm,Calm,-,N/A,,Clear,0,2013-05-04 03:56:00
9:56 PM,71.1,37.9,30,29.83,10.0,Calm,Calm,-,N/A,,Clear,0,2013-05-04 04:56:00
10:56 PM,64.0,42.1,45,29.83,10.0,Calm,Calm,-,N/A,,Clear,0,2013-05-04 05:56:00
11:56 PM,60.1,46.0,60,29.82,10.0,Calm,Calm,-,N/A,,Clear,0,2013-05-04 06:56:00